Powrót do katalogu

CZ-4C DEB

AktywnyLEO
NORAD 38304·DEBRIS·🇨🇳 China

Wystrzelony Mar 5, 2010 z Jiuquan Satellite Launch Center

Loading…

Następne Przeloty (najbliższe 24 godziny)

TLE

ŚwieżeSource: Space-Track

Epoka: Sep 14, 2026, 05:05 UTC

1 38304U 10009H   26257.21236495  .00000027  00000-0  26313-3 0  9999
2 38304  63.3053 126.8120 0321767  27.9312  61.6030 13.04261356620915

Śledź CZ-4C DEB w czasie rzeczywistym z AllMySat

Download on the App Store